Regional Weather Roundup
Issued by NWS

Home | Current Version | Previous Version | Text Only | Print | Product List | Glossary Off
Versions: 1 2 3 4 5 6 7 8 9 10 11 12 13 14 15 16 17 18 19 20 21 22 23 24 25 26 27 28 29 30 31 32 33 34 35 36 37 38 39 40 41 42 43 44 45 46 47 48 49 50

000
ASUS45 KBOU 010507
RWRCO

WEATHER ROUNDUP FOR COLORADO
NATIONAL WEATHER SERVICE DENVER/BOULDER CO
1100 PM MDT MON AUG 31 2015

NOTE: "FAIR" INDICATES FEW OR NO CLOUDS BELOW 12000 FEET WITH NO
SIGNIFICANT WEATHER AND/OR OBSTRUCTIONS TO VISIBILITY.

COZ001>005-013-030-031-010600-
...NORTHWEST COLORADO...

CITY           SKY/WX    TMP DP  RH WIND       PRES   REMARKS
CRAIG          MOCLDY    58  46  64 E6        30.22S
HAYDEN         NOT AVBL
MEEKER         CLOUDY    54  50  86 CALM      30.24S
MOUNT WERNER   NOT AVBL
STEAMBOAT SPGS CLOUDY    52  46  79 CALM      30.27F
WALDEN         PTCLDY    50  43  76 SE5       30.34S
$$

COZ006>008-011-010600-
...WEST CENTRAL VALLEYS...

CITY           SKY/WX    TMP DP  RH WIND       PRES   REMARKS
GRAND JUNCTION MOCLDY    71  53  52 CALM      30.10R
MONTROSE       CLOUDY    66  52  60 E7        30.19R
EAGLE          MOCLDY    59  50  72 CALM      30.29S
RIFLE          CLOUDY    63  51  65 CALM      30.18S
DELTA          CLOUDY    71  53  53 NE6       30.14S
NUCLA          CLOUDY    66  41  39 E10       30.22F
$$

COZ017>023-064>068-010600-
...SOUTHWEST COLORADO...

CITY           SKY/WX    TMP DP  RH WIND       PRES   REMARKS
DURANGO        MOCLDY    67  41  38 CALM      30.24R
CORTEZ         CLEAR     65  48  54 NE6       30.19R
PAGOSA SPRINGS MOCLDY    56  42  59 N3        30.32R
TELLURIDE      CLOUDY    56  47  73 SE6       30.44S
WOLF CREEK PAS PTCLDY    45  34  65 SW13      30.64S
$$

COZ009-010-012-014-032>034-037-058>063-010600-
...CENTRAL COLORADO...

CITY           SKY/WX    TMP DP  RH WIND       PRES   REMARKS
ASPEN          PTCLDY    52  47  83 SW3       30.34R
BUENA VISTA    CLEAR     52  46  80 W5        30.33S
COPPER MTN     PTCLDY    46  37  71 W13       30.61F
BERTHOUD PASS  FAIR      37  27  65 W12G26    30.63S
COTTONWOOD PAS PTCLDY    57  36  44 W7        30.46S
GUNNISON       CLEAR     55  43  62 NW5       30.35R
KREMMLING      PTCLDY    50  41  71 CALM      30.33F
LEADVILLE      PTCLDY    44  36  73 NE7       30.46R
MONARCH PASS   PTCLDY    46  36  66 W7        30.71S
SALIDA         MOCLDY    59  46  62 W8        30.37S
SUNLIGHT       MOCLDY    48  46  93 CALM      30.55F
WILKERSON PASS MOCLDY    50  37  62 NW3       30.58S
$$

COZ069>075-010600-
...SAN LUIS VALLEY/SANGRE DE CRISTO MOUNTAINS...

CITY           SKY/WX    TMP DP  RH WIND       PRES   REMARKS
ALAMOSA        CLOUDY    55  52  89 S6        30.31R
LA VETA PASS   CLOUDY    54  41  62 MISG      30.47F
SAGUACHE       PTCLDY    52  43  71 N3        30.33S
$$

COZ035-036-038>040-010600-
...NORTHERN COLORADO FRONT RANGE...

CITY           SKY/WX    TMP DP  RH WIND       PRES   REMARKS
DENVER INTL AP MOCLDY    62  54  74 SW3       30.16F
DMNS CITY PARK   N/A     61  56  82 W2G8      30.15F
AURORA         MOCLDY    59  52  77 S6        30.18S
FRONT RANGE AP NOT AVBL
ERIE MUNI ARPT PTCLDY    61  57  88 CALM      30.15F
BOULDER MUN AP PTCLDY    64  55  72 SW3       30.15F
CENTENNIAL     MOCLDY    59  54  83 S3        30.19S
BROOMFIELD     NOT AVBL
FORT COLLINS   MOCLDY    63  52  67 S7        30.13F
LONGMONT       MOCLDY    62  57  82 S5        30.15F
$$

COZ041-046-047-076>085-087-088-010600-
...PIKES PEAK/PALMER DIVIDE AND SOUTHERN FOOTHILLS...

CITY           SKY/WX    TMP DP  RH WIND       PRES   REMARKS
COLO. SPRINGS  MOCLDY    63  50  62 N10       30.20S
A. F. ACADEMY  MOCLDY    57  53  86 N6        30.22S
ELLICOTT       CLOUDY   N/A N/A N/A N12       30.17S
FALCON         CLOUDY    62  48  60 MISG      30.24F
FORT CARSON    MOCLDY    62  54  73 N14       30.15F
LIMON          PTCLDY    57  56  96 NW7       30.14F
MONUMENT HILL  PTCLDY    54  52  94 NW5       30.26F
TRINIDAD       CLOUDY    70  49  47 N3        30.17R
$$

COZ042>045-048>051-090-091-010600-
...NORTHEAST COLORADO...

CITY           SKY/WX    TMP DP  RH WIND       PRES   REMARKS
GREELEY ARPT   MOCLDY    63  52  67 W5        30.12F
AKRON          MOCLDY    62  58  86 N9        30.08F
BURLINGTON     LGT RAIN  65  60  84 NW14      30.10S
WRAY           CLOUDY    70  58  66 NW18      30.04S
STERLING       MOCLDY    63  59  88 CALM      30.05F
HOLYOKE        TSTM      66  59  77 SW9G16    30.04F
FORT MORGAN    MOCLDY    62  54  76 W3        30.09F
$$

COZ086-089-092>099-010600-
...SOUTHEAST COLORADO...

CITY           SKY/WX    TMP DP  RH WIND       PRES   REMARKS
PUEBLO         MOCLDY    72  52  49 VRB3      30.10R
LA JUNTA       PTCLDY    73  54  51 SW6       30.04S
LAMAR          MOCLDY    71  58  63 SE7       29.99R
SPRINGFIELD      N/A     71  55  56 NE5       30.08R
$$



USA.gov is the U.S. government's official web portal to all federal, state and local government web resources and services.